Flag for U.S.A. Weather past 2 weeks in Greeley, Colorado, U.S.A.

Now
81 °F

Sunny.


Feels Like: 81 °F
Forecast: 57 / 90 °F
Wind: 5 mph from East

Location: Greeley / Weld

Current Time: Jul 31, 2015 at 12:22:22 PM

Latest Report: Jul 31, 2015 at 11:55 AM


Visibility: 10 mi

Pressure: 30.29 "Hg (25.76 "Hg at 1424m altitude)

Humidity: 51%

Dew point: 61 °F

Location of GreeleyLocation

Historic Weather in Greeley — Graph

°F

Greeley temperature yesterday

Maximum temperature yesterday: 90 °F (at 2:15 PM)
Minimum temperature yesterday: 54 °F (at 4:55 AM)
Average temperature yesterday: 72 °F

Past Weeks' High & Low Weather Summary

 TemperatureHumidityPressure
High99 °F (Jul 27, 2:55 PM)100% (Jul 22, 3:15 AM)30.34 "Hg (Jul 22, 3:15 AM)
Low52 °F (Jul 20, 4:35 AM)11% (Jul 17, 1:55 PM)29.77 "Hg (Jul 27, 6:15 PM)
Average72 °F53%30.09 "Hg
* Reported Jul 16 11:15 AM — Jul 31 11:15 AM, Greeley, Weather by CustomWeather, © 2015

Note: Actual official high and low records may vary slightly from our data, if they occured in-between our weather recording intervals... More about our weather records

Advertising

Greeley weather history for previous 24 hours

 ConditionsComfort  
Time TempWeatherWind HumidityBarometerVisibility
11:15 AM
Fri, Jul 31
79 °FSunny.3 mph54%30.32 "Hg10 mi
10:55 AM79 °FSunny.3 mph54%30.33 "Hg10 mi
10:35 AM75 °FSunny.No wind61%30.33 "Hg10 mi
10:15 AM73 °FSunny.6 mph65%30.33 "Hg10 mi
9:55 AM72 °FSunny.No wind65%30.33 "Hg10 mi
9:35 AM72 °FSunny.3 mph65%30.33 "Hg10 mi
9:15 AM70 °FSunny.3 mph69%30.34 "Hg10 mi
8:55 AM68 °FSunny.No wind73%30.34 "Hg10 mi
8:35 AM66 °FSunny.No wind78%30.34 "Hg10 mi
8:15 AM64 °FSunny.No wind78%30.34 "Hg10 mi
7:55 AM63 °FSunny.No wind83%30.34 "Hg10 mi
7:35 AM63 °FSunny.5 mph77%30.33 "Hg10 mi
7:15 AM61 °FSunny.3 mph83%30.33 "Hg10 mi
6:55 AM59 °FSunny.No wind88%30.33 "Hg10 mi
6:35 AM57 °FClear.6 mph88%30.32 "Hg10 mi
6:15 AM55 °FClear.5 mph94%30.32 "Hg10 mi
5:55 AM57 °FClear.6 mph88%30.31 "Hg10 mi
5:35 AM55 °FClear.6 mph94%30.31 "Hg10 mi
5:15 AM57 °FClear.6 mph88%30.30 "Hg10 mi
4:55 AM57 °FClear.No wind88%30.30 "Hg10 mi
4:35 AM57 °FClear.6 mph88%30.30 "Hg10 mi
4:15 AM57 °FClear.8 mph88%30.30 "Hg10 mi
3:55 AM61 °FClear.6 mph83%30.30 "Hg10 mi
3:35 AM61 °FClear.6 mph83%30.30 "Hg10 mi
3:15 AM61 °FClear.6 mph83%30.30 "Hg10 mi
2:55 AM63 °FClear.7 mph77%30.30 "Hg10 mi
2:35 AM63 °FClear.7 mph77%30.30 "Hg10 mi
2:15 AM61 °FClear.8 mph83%30.30 "Hg10 mi
1:35 AM61 °FClear.8 mph88%30.31 "Hg10 mi
1:15 AM63 °FClear.5 mph83%30.31 "Hg10 mi
12:55 AM63 °FClear.6 mph83%30.32 "Hg10 mi
12:35 AM64 °FClear.3 mph78%30.32 "Hg10 mi
12:15 AM64 °FClear.No wind78%30.32 "Hg10 mi
11:55 PM
Thu, Jul 30
66 °FClear.5 mph73%30.32 "Hg10 mi
11:35 PM66 °FClear.6 mph73%30.31 "Hg10 mi
11:15 PM66 °FClear.8 mph73%30.31 "Hg10 mi
10:55 PM66 °FClear.9 mph73%30.31 "Hg10 mi
9:35 PM72 °FClear.15 mph61%30.30 "Hg10 mi
9:15 PM72 °FClear.15 mph61%30.29 "Hg10 mi
8:55 PM73 °FSunny.14 mph57%30.28 "Hg10 mi
8:35 PM73 °FSunny.9 mph57%30.26 "Hg10 mi
8:15 PM77 °FSunny.13 mph51%30.25 "Hg10 mi
7:55 PM81 °FSunny.10 mph34%30.24 "Hg10 mi
7:35 PM82 °FSunny.8 mph32%30.24 "Hg10 mi
6:55 PM86 °FSunny.10 mph27%30.23 "Hg10 mi
6:35 PM88 °FSunny.10 mph25%30.23 "Hg10 mi
6:15 PM90 °FSunny.9 mph21%30.23 "Hg10 mi
5:55 PM90 °FSunny.9 mph21%30.23 "Hg10 mi
5:35 PM90 °FSunny.8 mph21%30.23 "HgN/A
5:15 PM90 °FSunny.6 mph21%30.24 "HgN/A
4:55 PM90 °FSunny.6 mph21%30.24 "HgN/A
4:35 PM90 °FSunny.8 mph21%30.24 "HgN/A
4:15 PM90 °FSunny.6 mph20%30.25 "HgN/A
3:35 PM90 °FSunny.3 mph18%30.26 "HgN/A
3:15 PM90 °FSunny.7 mph21%30.26 "HgN/A
2:55 PM90 °FSunny.6 mph17%30.27 "HgN/A
2:35 PM90 °FSunny.5 mph18%30.27 "HgN/A
2:15 PM90 °FSunny.7 mph22%30.28 "Hg10 mi
1:55 PM88 °FSunny.7 mph25%30.29 "Hg10 mi
1:35 PM88 °FSunny.5 mph27%30.29 "Hg10 mi
1:15 PM88 °FSunny.3 mph29%30.30 "Hg10 mi
12:55 PM84 °FSunny.7 mph37%30.30 "Hg10 mi
12:35 PM84 °FSunny.3 mph37%30.31 "Hg10 mi
12:15 PM84 °FSunny.5 mph40%30.32 "Hg10 mi
Weather by CustomWeather, © 2015

See weather overviewHow to use our weather pages